Temperature
12 13 13 13 14 14 14 14 14 14 14 14 15 15 15 15 15 15 15 15 15 15 15 15 15 15 15 15 15 15 15 15 15 15 15 15 15 15 14 14 14 14 14
12 13 13 13 13 13 13 14 14 14 14 14 14 14 14 14 15 15 15 15 15 14 14 14 14 15 15 15 15 15 15 15 15 14 14 14 14 14 14 14 14 14 14
12 12 13 13 13 13 13 13 13 14 14 14 14 14 14 14 14 14 14 14 14 14 14 14 14 14 15 15 15 15 14 14 14 14 14 14 14 14 14 14 14 14 14
12 12 12 13 13 13 13 13 13 13 13 13 13 14 14 14 14 14 14 14 14 14 14 14 14 14 14 15 14 14 14 14 13 13 13 13 13 14 14 14 14 14 14
11 12 12 12 12 12 13 13 13 13 13 13 13 13 13 14 14 14 14 14 14 14 14 14 14 14 14 14 14 14 14 13 13 13 13 13 13 13 13 13 13 13 13
11 11 11 12 12 12 12 12 12 13 13 13 13 13 13 13 13 14 14 14 14 14 14 14 14 14 14 14 14 14 13 13 13 13 13 13 13 13 13 13 13 13 13
11 11 11 11 11 12 12 12 12 12 12 12 13 13 13 13 13 13 13 13 13 13 13 13 14 14 14 14 14 13 13 13 13 13 13 13 13 13 13 12 13 13 12
10 10 11 11 11 11 11 11 12 12 12 12 12 13 13 13 13 13 13 13 13 13 13 13 13 13 13 13 13 13 13 13 12 12 12 12 12 12 12 12 12 12 12
9 10 10 10 11 11 11 11 11 12 12 12 12 12 12 12 12 13 13 13 13 13 13 13 13 13 13 13 13 12 12 12 12 12 12 12 12 12 12 12 12 12 12
9 9 10 10 10 10 11 11 11 11 11 11 12 12 12 12 12 12 12 12 12 12 12 12 12 12 12 12 12 12 12 12 12 12 12 12 12 12 12 12 12 12 12
9 9 9 9 9 10 10 10 10 10 11 11 11 11 11 11 11 12 12 12 12 12 12 12 12 12 12 12 12 12 12 11 11 12 11 11 11 11 12 12 12 12 12
8 8 8 8 9 9 9 9 10 10 10 10 11 11 11 11 11 11 11 11 11 12 12 12 12 12 11 11 11 11 11 11 11 11 11 11 11 11 11 11 11 11 11
7 7 8 8 8 8 8 9 9 9 9 10 10 10 10 10 11 11 11 11 11 11 11 11 11 11 11 11 11 11 11 11 11 11 11 11 11 11 11 11 11 11 11
7 7 7 7 7 8 8 8 8 9 9 9 9 10 10 10 10 10 10 10 11 11 11 11 11 11 11 11 11 11 11 10 11 11 11 11 11 11 11 11 11 11 11
6 6 7 7 7 7 7 7 8 8 8 8 9 9 9 9 9 10 10 10 10 10 10 10 10 10 10 10 10 10 10 10 10 10 10 10 10 11 11 11 11 11 11
6 6 6 7 7 7 7 7 7 7 7 8 8 8 8 9 9 9 9 9 9 9 10 10 10 10 10 10 10 10 10 10 10 10 10 10 10 10 10 10 10 10 10
5 5 6 6 6 6 6 6 6 7 7 7 7 8 8 8 8 9 9 9 9 9 9 9 9 9 9 9 9 9 9 9 9 9 9 10 10 10 10 10 10 10 10
5 5 5 5 6 6 6 6 6 6 6 7 7 7 7 8 8 8 8 8 8 9 8 9 9 9 9 9 9 9 9 9 9 9 9 9 9 9 9 9 9 9 9
4 4 4 5 5 5 5 5 5 6 6 6 6 6 7 7 7 7 8 8 8 8 8 8 8 8 8 9 9 8 8 8 8 8 8 8 9 9 9 9 9 9 9
4 4 4 4 4 4 4 4 5 5 5 5 5 6 6 6 6 7 7 7 7 7 7 8 8 8 8 8 8 8 8 8 8 8 8 8 8 8 8 8 8 9 9
3 3 3 3 4 4 4 4 4 4 4 5 5 5 5 6 6 6 6 6 7 7 7 7 7 7 7 7 7 7 7 7 7 7 7 7 7 8 8 8 8 8 8
3 3 3 3 3 3 3 3 3 4 4 4 4 4 5 5 5 6 6 6 6 6 7 7 7 7 7 7 7 6 6 7 7 7 7 7 7 7 7 7 7 8 8
2 2 2 2 2 2 2 3 3 3 3 3 4 4 4 4 5 5 5 5 5 6 6 6 6 6 6 6 6 6 6 6 6 6 6 6 6 7 7 7 7 7 7
2 2 2 2 2 2 2 2 2 2 3 3 3 3 3 4 4 4 5 5 5 5 5 5 5 6 6 6 6 6 6 6 5 5 5 6 6 6 6 6 6 6 7
2 2 1 1 1 1 2 2 2 2 2 2 3 3 3 3 3 4 4 4 4 4 5 5 5 5 5 5 5 5 5 5 5 5 5 5 5 5 6 6 6 6 6
1 1 1 1 1 1 1 1 1 2 2 2 2 2 2 2 3 3 3 4 4 4 4 4 5 5 4 5 5 5 5 5 5 5 5 5 5 5 5 5 5 6 6
Wind_Speed
5 7 8 10 10 10 9 9 9 9 9 9 8 8 9 9 10 10 10 11 11 11 12 12 13 14 15 16 16 16 17 17 18 18 18 17 18 18 18 17 17 17 18
4 7 8 9 10 10 9 9 9 9 8 8 8 8 8 8 9 9 10 10 10 10 11 12 13 14 15 15 15 15 15 15 16 16 17 16 17 17 18 18 17 16 18
5 7 7 9 10 10 10 9 8 8 9 8 8 8 8 8 9 9 9 10 10 11 11 12 12 13 14 14 14 14 13 12 12 12 13 13 15 17 17 17 17 17 17
6 7 7 9 9 10 10 10 8 7 8 8 8 8 8 8 8 9 9 9 10 10 11 12 13 13 13 13 13 13 11 9 8 9 11 13 14 15 16 16 16 17 17
8 9 8 8 9 9 9 9 9 7 7 8 8 8 8 7 8 8 9 9 10 10 11 11 12 12 13 12 12 11 9 7 8 9 12 14 14 15 15 15 15 16 16
7 9 9 9 9 8 8 8 8 8 7 7 7 7 7 6 7 8 8 9 9 10 11 11 11 12 12 11 10 9 7 6 8 9 12 13 13 14 14 14 14 15 15
6 8 8 9 8 8 8 7 7 8 7 7 7 7 6 6 7 8 8 8 9 9 10 11 10 10 11 10 9 7 6 7 8 10 13 14 13 13 13 13 13 14 15
5 6 8 9 9 8 8 7 7 7 7 6 6 6 6 6 7 7 8 8 8 9 10 10 10 9 9 9 8 7 6 7 8 10 13 13 13 12 12 12 12 13 14
6 6 7 7 8 9 9 8 7 6 7 5 5 5 5 6 6 6 7 7 7 9 9 9 9 8 8 8 7 6 6 7 8 9 11 11 12 12 12 12 12 12 13
5 5 6 6 6 7 7 7 7 7 6 5 4 4 4 5 5 5 5 6 7 8 8 9 9 8 8 7 7 6 6 6 8 9 11 11 12 11 11 11 11 11 11
4 4 5 5 5 5 5 5 6 6 6 5 3 3 3 3 3 4 4 5 6 7 8 8 8 7 7 6 5 5 4 5 7 8 10 11 11 11 11 10 10 10 10
4 3 4 4 5 5 5 5 5 4 4 5 4 3 2 3 3 4 3 4 4 7 7 7 6 6 5 4 4 4 3 5 6 7 9 11 10 10 10 10 9 9 10
3 3 3 3 4 4 4 4 4 4 4 5 5 3 3 3 3 4 3 3 3 6 6 6 5 3 3 3 3 3 4 5 7 7 9 10 10 10 9 9 9 9 9
3 3 3 4 3 4 4 4 4 4 4 5 5 4 4 3 3 3 3 3 3 3 4 3 2 2 3 3 3 4 5 6 7 8 8 9 9 9 9 9 8 8 8
3 3 3 3 3 3 3 3 3 4 4 5 5 5 4 3 2 2 2 3 3 3 3 2 2 2 2 3 3 4 4 6 7 7 7 9 8 8 8 8 8 8 8
2 3 3 3 3 3 3 2 3 4 5 5 5 5 4 4 3 2 2 2 2 2 2 2 2 2 2 3 3 4 5 6 7 7 8 8 9 8 8 8 8 7 8
2 2 2 2 3 3 2 2 3 4 4 4 4 5 4 3 4 3 2 2 2 2 2 3 2 3 2 3 2 3 4 4 6 7 7 8 8 8 8 7 7 6 6
1 1 2 3 3 3 2 2 3 3 3 4 4 4 4 3 3 2 2 2 2 2 1 2 2 2 2 2 2 2 3 3 5 6 7 7 7 7 7 6 7 6 6
0 1 1 1 1 2 2 2 2 2 3 3 3 3 4 3 3 2 2 2 2 2 2 2 2 2 2 2 2 2 2 2 4 5 5 7 7 7 7 6 7 6 6
0 0 0 1 1 1 1 1 1 2 2 3 3 3 3 3 2 2 2 3 3 2 2 2 3 3 2 2 2 2 2 2 4 4 4 6 6 7 7 6 5 5 5
1 1 0 0 1 0 1 0 0 0 0 1 2 2 2 3 2 2 2 2 2 2 2 3 3 3 2 2 3 2 2 2 3 3 4 4 5 6 6 6 5 5 4
1 1 1 1 1 1 1 1 1 1 1 1 0 1 1 2 1 1 3 2 2 2 2 3 3 3 2 2 3 3 1 1 1 2 2 3 3 4 5 4 5 5 4
2 1 1 1 1 1 1 1 1 1 1 0 0 1 1 2 0 1 3 3 2 2 2 3 3 3 4 3 3 2 3 2 1 1 1 2 2 2 3 3 4 5 5
2 1 1 1 2 2 1 1 2 2 2 2 1 1 0 1 0 1 2 3 3 2 3 3 3 2 3 4 2 1 2 3 2 1 1 1 2 2 2 2 3 4 4
1 1 1 2 2 2 2 2 3 2 2 1 1 2 2 1 1 1 2 2 3 2 3 3 3 2 2 3 3 1 1 1 1 2 2 2 1 2 1 2 3 3 4
1 1 2 2 3 2 2 2 2 3 3 3 3 3 2 2 2 2 2 2 2 2 3 3 3 3 2 1 2 2 2 2 3 2 2 3 2 2 2 1 2 3 4
Wind_Direction
47 41 35 33 36 38 39 41 47 49 50 56 66 78 82 82 81 80 82 85 86 89 88 88 87 84 82 81 82 81 81 81 80 79 76 75 76 75 74 73 75 74 78
54 50 44 42 42 40 39 40 48 50 50 51 60 71 81 84 84 82 83 85 87 91 93 91 89 87 86 85 84 83 84 85 86 84 79 75 75 75 74 74 77 78 78
52 58 52 45 42 41 38 39 45 50 51 50 55 64 78 86 85 82 82 86 90 92 93 92 90 89 89 88 87 87 87 87 87 87 84 83 79 78 78 77 78 80 79
47 56 54 46 41 40 38 35 39 47 50 49 52 57 70 85 90 85 82 84 90 91 90 93 91 90 90 90 90 90 88 84 81 79 84 84 81 81 81 79 80 80 81
48 47 52 51 43 40 38 34 32 42 51 51 50 52 57 76 89 89 85 86 87 90 92 91 93 93 93 93 93 90 83 71 69 71 84 84 82 84 83 81 81 81 81
49 46 46 41 39 39 39 33 31 36 51 54 52 53 56 66 84 87 87 88 88 89 93 93 94 97 97 97 95 89 74 60 62 75 84 86 87 87 85 85 83 84 84
52 47 44 35 34 35 35 33 32 34 45 53 52 54 60 66 73 83 87 88 90 92 92 93 97 100 103 101 96 86 67 61 66 76 81 83 86 89 88 88 88 87 86
54 52 50 37 32 30 32 32 29 34 41 56 55 54 61 71 67 81 84 88 92 94 93 92 95 103 108 105 98 86 69 66 72 79 84 85 87 87 89 90 90 90 89
57 53 50 42 36 33 31 30 30 34 38 53 60 60 65 69 71 73 87 88 94 97 94 94 92 101 107 107 100 90 74 67 71 81 87 89 91 90 91 92 93 93 91
59 55 49 43 39 37 32 30 29 29 31 41 58 66 70 73 77 69 83 92 99 103 101 99 96 96 104 106 103 95 80 71 75 82 88 94 95 94 93 93 95 96 95
54 54 45 40 38 34 29 29 31 31 27 22 37 68 84 81 83 81 75 78 100 108 107 104 101 99 102 109 114 106 88 75 82 88 96 102 100 97 95 94 96 97 97
33 44 46 36 34 32 23 26 29 28 28 19 31 53 76 88 88 86 90 84 96 111 110 108 107 108 111 118 125 123 103 90 89 93 104 110 106 102 98 95 97 99 99
27 28 37 42 41 36 34 26 26 25 26 25 25 44 54 60 72 77 75 78 102 113 101 100 96 98 108 109 118 117 106 93 95 93 106 112 111 109 104 100 97 101 102
32 22 25 34 44 42 37 33 32 29 28 28 21 26 41 42 46 57 72 71 74 90 92 93 72 68 78 98 104 95 92 89 93 94 102 114 115 115 110 104 101 103 107
34 23 18 24 28 38 40 37 36 32 28 27 27 18 35 39 44 38 64 67 60 72 92 81 62 73 68 69 77 89 86 93 98 96 100 105 111 114 113 108 103 101 105
38 28 24 15 27 37 44 37 37 34 31 32 31 19 29 38 34 37 64 65 61 61 91 91 62 73 87 77 73 79 84 94 104 107 108 104 103 107 112 111 107 104 103
42 30 25 13 23 32 40 39 38 39 36 32 22 21 19 41 34 32 70 80 61 72 87 91 75 64 76 82 80 74 79 92 100 108 113 113 111 106 108 108 106 104 104
66 39 20 2 13 25 34 43 45 47 43 36 23 22 6 40 45 34 64 82 58 80 83 118 122 108 102 92 89 78 76 84 92 100 109 113 116 115 111 103 100 100 103
53 64 28 6 3 17 34 65 68 58 54 47 28 14 0 28 57 43 57 59 63 85 100 134 132 122 123 107 106 94 86 87 86 93 98 104 109 113 115 112 103 96 96
231 189 108 15 7 12 23 71 89 77 62 56 39 17 359 10 51 60 55 64 67 109 119 139 141 122 134 134 116 91 91 96 89 88 93 98 102 104 106 111 108 105 101
182 194 196 327 332 305 308 270 198 177 149 91 50 23 9 0 26 72 78 84 92 131 143 139 135 132 128 131 114 100 74 89 100 99 98 96 94 102 104 102 107 112 112
210 239 247 253 267 263 278 272 220 195 199 171 106 43 12 348 6 112 111 118 112 139 133 129 136 152 155 145 139 141 131 113 77 100 98 108 104 106 105 109 112 118 118
229 235 254 260 268 271 284 279 253 212 201 209 221 245 15 350 334 121 127 122 125 142 154 151 150 157 169 168 155 149 153 184 163 135 130 123 129 121 107 120 127 132 127
236 233 261 266 266 253 250 231 221 217 216 224 211 225 218 346 269 135 140 136 139 144 161 166 148 168 168 173 184 198 163 141 148 155 190 171 165 162 157 132 132 131 133
235 219 247 258 250 243 235 236 231 222 215 209 195 209 223 287 236 176 149 138 145 150 159 154 151 163 173 178 170 160 142 144 142 168 190 195 200 205 189 163 140 136 137
289 251 238 243 244 238 229 227 227 218 210 206 209 205 213 239 196 170 156 147 148 149 162 164 164 176 186 191 165 153 153 166 172 170 192 193 202 225 210 173 152 142 141
Height
1520 1520 1521 1521 1522 1523 1523 1524 1525 1526 1526 1527 1528 1529 1530 1530 1531 1532 1532 1533 1534 1535 1535 1536 1537 1537 1537 1538 1539 1540 1540 1541 1541 1542 1543 1543 1543 1544 1544 1544 1544 1545 1545
1520 1520 1521 1521 1522 1522 1523 1524 1525 1526 1527 1528 1528 1529 1530 1531 1532 1532 1533 1534 1535 1535 1536 1537 1538 1538 1539 1539 1540 1541 1542 1542 1543 1544 1544 1545 1545 1545 1546 1546 1546 1547 1547
1519 1520 1520 1521 1522 1522 1523 1524 1525 1526 1527 1528 1529 1530 1530 1531 1532 1533 1534 1534 1535 1536 1537 1538 1538 1539 1540 1541 1541 1542 1543 1544 1545 1546 1546 1546 1547 1547 1547 1548 1548 1548 1549
1519 1519 1520 1521 1521 1522 1523 1523 1525 1526 1527 1528 1529 1529 1530 1531 1532 1533 1534 1535 1536 1537 1538 1538 1539 1540 1541 1542 1543 1544 1545 1546 1547 1547 1547 1548 1548 1549 1549 1549 1550 1550 1550
1519 1519 1520 1520 1521 1522 1522 1523 1524 1525 1526 1527 1528 1529 1530 1531 1532 1533 1534 1535 1536 1537 1538 1539 1540 1541 1542 1543 1544 1545 1546 1547 1548 1548 1549 1549 1550 1550 1550 1551 1551 1551 1552
1518 1518 1519 1520 1520 1521 1522 1522 1523 1524 1525 1526 1527 1529 1530 1530 1532 1533 1534 1535 1536 1537 1538 1539 1540 1541 1542 1544 1545 1546 1547 1548 1548 1549 1550 1550 1551 1551 1552 1552 1552 1553 1553
1517 1517 1518 1519 1520 1520 1521 1522 1522 1523 1524 1525 1527 1528 1529 1530 1531 1532 1534 1535 1536 1537 1538 1539 1540 1542 1543 1544 1545 1547 1548 1548 1549 1550 1550 1551 1552 1552 1553 1553 1554 1554 1554
1516 1516 1517 1518 1518 1519 1520 1520 1521 1522 1523 1524 1526 1527 1528 1529 1530 1532 1533 1535 1536 1537 1538 1539 1541 1542 1543 1544 1546 1547 1548 1549 1549 1550 1551 1551 1552 1553 1553 1554 1554 1555 1556
1515 1515 1515 1516 1517 1517 1518 1519 1520 1521 1522 1523 1524 1525 1527 1528 1529 1531 1532 1534 1535 1536 1537 1539 1540 1542 1543 1545 1546 1547 1548 1549 1550 1550 1551 1552 1553 1553 1554 1554 1555 1556 1556
1514 1513 1514 1514 1515 1515 1516 1517 1518 1519 1520 1522 1523 1524 1526 1527 1528 1530 1531 1533 1534 1535 1537 1538 1540 1541 1543 1544 1546 1547 1548 1549 1550 1550 1551 1552 1553 1553 1554 1555 1556 1557 1557
1512 1512 1512 1513 1513 1514 1514 1515 1516 1517 1518 1520 1521 1523 1524 1525 1527 1528 1529 1531 1533 1534 1536 1537 1539 1541 1542 1544 1545 1547 1548 1549 1549 1550 1551 1552 1553 1554 1554 1555 1556 1557 1558
1510 1510 1511 1511 1511 1512 1512 1513 1514 1515 1516 1517 1519 1521 1522 1524 1525 1527 1528 1530 1531 1533 1535 1536 1538 1540 1541 1543 1545 1546 1547 1548 1549 1550 1551 1552 1553 1554 1554 1555 1556 1557 1558
1508 1508 1509 1509 1510 1510 1511 1511 1512 1513 1514 1515 1517 1519 1520 1522 1523 1525 1526 1528 1530 1531 1533 1535 1537 1538 1540 1542 1544 1545 1546 1547 1548 1549 1550 1551 1552 1553 1554 1555 1556 1557 1557
1506 1506 1507 1507 1508 1508 1509 1509 1510 1511 1512 1513 1514 1517 1518 1519 1521 1522 1524 1526 1527 1529 1531 1533 1535 1537 1539 1541 1542 1544 1545 1546 1547 1548 1549 1551 1552 1553 1554 1555 1555 1556 1557
1504 1504 1504 1505 1506 1506 1507 1507 1508 1509 1510 1511 1512 1514 1516 1517 1518 1520 1522 1523 1525 1527 1528 1531 1533 1535 1537 1539 1541 1542 1544 1545 1546 1547 1548 1550 1551 1552 1553 1554 1555 1555 1556
1502 1502 1502 1503 1504 1504 1505 1505 1506 1507 1507 1508 1510 1511 1513 1514 1516 1517 1519 1521 1523 1525 1527 1529 1531 1533 1535 1537 1539 1541 1542 1544 1545 1546 1547 1549 1550 1551 1552 1553 1554 1555 1555
1500 1500 1500 1501 1501 1502 1502 1503 1504 1504 1505 1506 1507 1508 1509 1511 1513 1515 1516 1518 1520 1523 1524 1526 1529 1531 1533 1535 1537 1539 1541 1542 1543 1545 1546 1547 1548 1550 1551 1552 1553 1553 1554
1498 1498 1498 1498 1499 1499 1499 1500 1501 1502 1502 1503 1504 1505 1506 1508 1510 1512 1513 1515 1517 1519 1522 1524 1526 1528 1531 1533 1534 1537 1539 1540 1542 1543 1544 1546 1547 1548 1549 1550 1551 1552 1553
1496 1495 1495 1496 1496 1496 1497 1498 1498 1499 1500 1501 1502 1503 1504 1506 1507 1509 1510 1512 1514 1516 1519 1521 1524 1526 1528 1530 1532 1534 1537 1538 1540 1541 1543 1544 1545 1546 1547 1549 1550 1551 1552
1493 1493 1493 1493 1493 1494 1494 1495 1495 1496 1497 1498 1499 1500 1502 1503 1505 1506 1508 1510 1511 1513 1515 1518 1520 1523 1525 1527 1529 1532 1534 1536 1538 1539 1541 1542 1543 1545 1546 1546 1547 1549 1550
1490 1490 1490 1490 1490 1491 1491 1491 1492 1493 1494 1496 1497 1498 1499 1500 1502 1503 1504 1507 1508 1510 1512 1514 1517 1520 1522 1525 1527 1529 1532 1534 1536 1537 1539 1540 1541 1543 1544 1544 1545 1546 1547
1487 1487 1487 1487 1488 1488 1488 1489 1490 1490 1492 1493 1494 1495 1496 1497 1499 1500 1501 1503 1505 1507 1509 1511 1513 1516 1519 1521 1523 1526 1529 1533 1533 1535 1536 1538 1539 1540 1541 1543 1544 1544 1545
1484 1484 1484 1484 1484 1485 1485 1486 1487 1488 1489 1490 1491 1491 1492 1494 1495 1496 1498 1500 1502 1504 1505 1507 1509 1512 1515 1518 1521 1523 1525 1527 1530 1532 1534 1535 1536 1538 1539 1540 1541 1542 1543
1481 1481 1481 1481 1481 1482 1482 1482 1483 1484 1484 1486 1487 1488 1489 1490 1492 1493 1495 1497 1499 1501 1502 1504 1506 1509 1512 1514 1517 1520 1522 1523 1526 1528 1531 1532 1534 1535 1537 1538 1539 1540 1541
1478 1478 1478 1479 1479 1479 1479 1480 1480 1481 1482 1483 1484 1485 1486 1488 1489 1489 1491 1493 1496 1498 1499 1501 1503 1506 1508 1510 1513 1515 1518 1520 1522 1524 1526 1528 1531 1532 1534 1535 1536 1537 1538
1475 1475 1475 1475 1475 1476 1476 1477 1477 1478 1478 1480 1480 1481 1483 1484 1485 1486 1488 1490 1492 1494 1496 1498 1500 1502 1505 1507 1510 1512 1514 1516 1518 1520 1522 1524 1526 1529 1530 1532 1533 1534 1535